Regional Weather Roundup
Issued by NWS

Home | Current Version | Previous Version | Graphics & Text | Print | Product List | Glossary On
Versions: 1 2 3 4 5 6 7 8 9 10 11 12 13 14 15 16 17 18 19 20 21 22 23 24 25 26 27 28 29 30 31 32 33 34 35 36 37 38 39 40 41 42 43 44 45 46 47 48 49 50
000
ASUS43 KMKX 200121
RWRWI

WISCONSIN REGIONAL WEATHER ROUNDUP
NATIONAL WEATHER SERVICE MILWAUKEE/SULLIVAN WI
800 PM CDT THU OCT 19 2017

NOTE: "FAIR" INDICATES FEW OR NO CLOUDS BELOW 12,000 FEET WITH NO
SIGNIFICANT WEATHER AND/OR OBSTRUCTIONS TO VISIBILITY.

WIZ001-002-006>008-014>016-023>028-200200-
NORTHWEST WISCONSIN

CITY           SKY/WX    TMP DP  RH WIND       PRES   REMARKS
SUPERIOR ARPT  CLOUDY    55  36  48 CALM      29.91S
ASHLAND        CLOUDY    56  34  43 S6        29.94S
HAYWARD        CLEAR     56  36  47 SW3       29.96S
SIREN          CLEAR     60  35  38 S5        29.94F
CUMBERLAND     CLEAR     54  36  50 S7        29.97F
RICE LAKE      CLEAR     57  36  45 SE8       30.00S
CHETEK         CLEAR     57  38  49 SE7       29.99S
LADYSMITH      CLEAR     58  35  41 S8        30.02S
EAU CLAIRE     CLEAR     58  35  42 S5        30.00S
MENOMONIE      CLEAR     56  36  47 E7        30.00S
NEW RICHMOND   CLEAR     58  34  40 S9        29.97F
OSCEOLA        CLEAR     60  37  42 S7        29.98S
$$

WIZ003>005-009-010-017-018-200200-
NORTH CENTRAL WISCONSIN

CITY           SKY/WX    TMP DP  RH WIND       PRES   REMARKS
MANITOWISH WTR PTCLDY    54  33  44 S6        30.00F
ARBOR VITAE    PTCLDY    57  34  41 S6        30.01S
WOODRUFF       PTCLDY    57  34  41 S6        30.01S
RHINELANDER    CLEAR     56  33  42 S6        30.04S
EAGLE RIVER    CLOUDY    54  30  39 CALM      30.02F
LAND O LAKES   CLOUDY    55  31  40 S5        30.03S
PHILLIPS       CLEAR     55  35  46 S6        30.00S
TOMAHAWK       CLEAR     47  34  60 CALM      30.04S
MEDFORD        CLEAR     52  36  54 S8        30.03S
MERRILL        CLEAR     57  34  41 S3        30.05S
$$

WIZ029-030-035-036-043>047-200200-
CENTRAL WISCONSIN

CITY           SKY/WX    TMP DP  RH WIND       PRES   REMARKS
WAUSAU         CLEAR     57  35  43 S8        30.03F
MOSINEE        CLEAR     54  36  50 S7        30.07S
MARSHFIELD     CLEAR     59  32  36 S8        30.04F
STEVENS POINT  CLEAR     54  35  49 S8        30.07S
WAUPACA        CLEAR     55  36  47 S6        30.09S
WAUTOMA        CLEAR     59  35  40 S7        30.09S
WISC RAPIDS    CLEAR     58  37  45 S8        30.08S
CAMP DOUGLAS   CLEAR     48  36  61 CALM      30.06F
$$

WIZ011>013-019>022-031-037>040-048>050-200200-
NORTHEAST WISCONSIN

CITY           SKY/WX    TMP DP  RH WIND       PRES   REMARKS
ANTIGO         CLEAR     49  35  57 S8        30.06F
SHAWANO        CLEAR     59  34  38 CALM      30.07S
OCONTO         CLEAR     55  38  53 S3        30.07S
STURGEON BAY   CLEAR     57  37  47 S8        30.09R
GREEN BAY      CLEAR     57  39  51 S7        30.09R
MANITOWOC      CLEAR     54  38  54 S7        30.11S
APPLETON       PTCLDY    55  32  41 S8        30.08R
CLINTONVILLE   CLEAR     55  36  47 S6        30.07S
OSHKOSH        CLEAR     53  38  56 S8        30.10R
$$

WIZ032>034-041-042-053>061-200200-
SOUTHWEST WISCONSIN

CITY           SKY/WX    TMP DP  RH WIND       PRES   REMARKS
LA CROSSE      CLEAR     62  38  40 S5        30.03F
SPARTA         CLEAR     48  39  71 CALM      30.07S
VIROQUA        CLEAR     58  38  47 SE9       30.07S
BOSCOBEL       CLEAR     52  40  63 CALM      30.08F
PRAIRIE DU CHI CLEAR     58  37  44 E6        30.07F
PLATTEVILLE    CLOUDY    58  37  44 SE8       30.11F
$$

WIZ056-057-062-063-064-067-068-200200-
SOUTH CENTRAL WISCONSIN

CITY           SKY/WX    TMP DP  RH WIND       PRES   REMARKS
REEDSBURG      CLEAR     58  36  44 S6        30.08F
BARABOO/DELLS  CLEAR     55  34  45 S8        30.09S
LONE ROCK      CLEAR     49  41  74 E5        30.09F
MINERAL POINT  CLEAR     57  34  41 SE7       30.11S
MADISON        PTCLDY    60  37  42 S7        30.11S
MIDDLETON      CLEAR     55  39  55 CALM      30.11F
WATERTOWN      CLEAR     54  36  51 SE7       30.12F
MONROE         CLEAR     61  30  31 S9        30.12S
JANESVILLE     MOCLDY    55  37  50 SE7       30.13S
$$

WIZ051-052-058>065-066-070>072-200200-
SOUTHEAST WISCONSIN

CITY           SKY/WX    TMP DP  RH WIND       PRES   REMARKS
MILWAUKEE      PTCLDY    57  26  30 S9        30.15F
WAUKESHA       CLEAR     55  30  38 S9        30.15S
MILWAUKEE/TIMM CLEAR     55  21  26 S7        30.15S
RACINE         CLEAR     55  23  28 S6        30.17S
BURLINGTON     CLEAR     52  35  53 S5        30.15S
KENOSHA        CLEAR     52  29  41 S7        30.16S
FOND DU LAC    CLEAR     54  35  48 S6        30.11S
SHEBOYGAN      CLEAR     48  38  68 S5        30.12S
WEST BEND      CLEAR     54  32  43 S6        30.13S
JUNEAU         CLEAR     56  35  44 S8        30.13S
$$

LSZ147-162-200200-
LAKE SUPERIOR

STATION/POSITION TIME  TEMP    WIND        PRES    WAVE
                       AIR SEA DIR/SP/G            HT/PER
                 (UTC) (F)     (DEG/KT/KT) (MB)    (FT/S)
W MID LAKE BUOY  0050   56 52              1013.2F   1/ 4
DEVILS ISLAND    0000   62     170/ 10/ 11 1013.1S
SAXON HARBOR     0040   53      CALM  /  5 1013.2S
$$

LMZ867-665-643>646-200200-
LAKE MICHIGAN

STATION/POSITION TIME  TEMP    WIND        PRES    WAVE
                       AIR SEA DIR/SP/G            HT/PER
                 (UTC) (F)     (DEG/KT/KT) (MB)    (FT/S)
S GREEN BAY BUOY 0030   60 58  180/ 10/ 12 1018.0R
N MID LAKE BUOY  0050   59 58  200/ 17/ 19 1018.4F   3/ 4
NORTHPORT PIER   0040   55     170/  3/  6 1017.9R
KEWAUNEE LAKESHO 0054   56     190/  7/  8 1018.3R
SHEBOYGAN LAKESH 0100   58     200/ 13/ 15 1019.8S
PORT WASHINGTON  0030   55     230/  1/  3 1021.3S
ATWATER BUOY     2309   57 53  170/ 10/ 12 1020.8R
MILWAUKEE LAKESH 0100   57     190/  9/  9   N/A
S MID LAKE BUOY  0050   61 61  200/ 12/ 14 1021.5S   1/ 3
KENOSHA   LAKESH 0100   58     190/  8/ 11 1021.0
$$

TC  - TEMPERATURE IN CELSIUS
VSB - VISIBILITY IN STATUTE MILES
WCI - WIND CHILL INDEX
HX  - HEAT INDEX





USA.gov is the U.S. government's official web portal to all federal, state and local government web resources and services.